Hourly Data Report for June 02, 2021

LONDON CS
ONTARIO
Current Station Operator: ECCC - MSC

43°02'00.000" N
81°09'00.000" W
278.00 m
6144478
71622
WSN

Download Data

Hourly Data (June 2021)
Hourly Data Report for June 2, 2021
TIME
LST
Temp Definition
°C
Dew Point Definition
°C
Rel Hum Definition
%
Precip. Amount Definition
mm

Wind Dir Definition
10's deg

Wind Spd Definition
km/h
Visibility Definition
km
Stn Press Definition
kPa
Hmdx Definition


Wind Chill Definition


Weather Definition


00:00 11.8 7.9 77 0.0       98.94     LegendNANA
01:00 11.9 8.2 78 0.2       98.89     LegendNANA
02:00 10.1 9.3 95 0.0       98.85     LegendNANA
03:00 10.3 8.6 90 0.0       98.85     LegendNANA
04:00 9.9 9.6 98 0.0       98.86     LegendNANA
05:00 9.4 9.4 100 0.0       98.84     LegendNANA
06:00 11.0 11.0 100 0.0       98.84     LegendNANA
07:00 13.6 10.2 80 0.0       98.81     LegendNANA
08:00 16.7 8.9 60 0.0       98.81     LegendNANA
09:00 19.3 10.0 55 0.0       98.80     LegendNANA
10:00 21.1 9.7 48 0.0       98.78     LegendNANA
11:00 21.7 10.7 50 0.0       98.75     LegendNANA
12:00 21.9 10.2 48 0.0       98.70     LegendNANA
13:00 22.6 10.6 47 0.0       98.64     LegendNANA
14:00 22.1 11.0 49 0.0       98.60     LegendNANA
15:00 20.8 11.4 55 0.0       98.60     LegendNANA
16:00 19.5 11.9 62 0.0       98.54     LegendNANA
17:00 18.9 12.3 65 0.0       98.50     LegendNANA
18:00 15.8 15.7 100 0.0       98.48     LegendNANA
19:00 15.4 15.4 100 1.0       98.43     LegendNANA
20:00 15.0 LegendMM LegendMM 1.8       98.39     LegendNANA
21:00 14.8 LegendMM LegendMM 2.0       98.37     LegendNANA
22:00 14.9 LegendMM LegendMM 3.7       98.35     LegendNANA
23:00 15.0 15.0 100 2.6       98.28     LegendNANA

Notes on Data Quality.

Legend

  • E = Estimated
  • M = Missing
  • NA = Not Available*
  • [empty] = Indicates an unobserved value
Date modified: